User: anonymous   Login
Location: Isola Pescaroli
(45.0500°N, 10.1667°E)
Time: 14:54:10
(UTC+00:00)
Language:

Cosmos 2154 Rocket - Orbit

View from above orbital plane
View from above orbital plane
View from above satellite
View from above satellite

Ground track
Ground track

The orbit data is extracted from the following two-line orbital elements,

1 21667U 91059B   21129.19152081  .00000025  00000-0  10282-4 0  9992
2 21667  82.9100  30.1683 0019525 249.0574 263.9318 13.75105374491123
Epoch (UTC): 09 May 2021 04:35:47
Eccentricity: 0.0019525
inclination: 82.9100°
perigee height: 967 km
apogee height: 995 km
right ascension of ascending node: 30.1683°
argument of perigee: 249.0574°
revolutions per day: 13.75105374
mean anomaly at epoch: 263.9318°
orbit number at epoch: 49112

The dashed part of the orbit path shows where the satellite is in the earth's shadow,  

DLR